Temp
76 77 75 75 74 72 69 68 68 67 68 67 68 68 66 65 65 65 64 64 64 64
76 74 71 71 70 70 68 69 68 67 66 67 67 68 65 65 65 66 65 64 63 64
72 72 71 70 67 67 67 67 67 66 66 66 67 67 66 65 66 64 65 64 63 63
73 71 70 68 68 67 67 67 68 68 67 66 66 66 65 66 66 65 64 65 64 63
71 70 68 67 67 68 67 69 68 69 69 68 67 67 66 66 66 65 64 64 63 62
69 68 66 66 67 67 68 68 69 69 68 68 68 67 67 67 67 65 65 64 64 62
67 67 66 67 67 67 68 67 67 68 69 69 68 64 67 68 66 66 66 65 64 63
67 67 67 66 66 67 67 67 68 67 66 64 61 56 54 60 65 64 64 63 63 61
68 68 66 65 65 65 66 67 67 66 64 59 58 48 49 52 60 63 62 60 60 60
68 67 66 66 65 65 64 64 64 63 61 58 54 46 47 49 58 63 62 60 58 60
69 67 66 65 64 63 62 62 62 62 60 56 51 46 45 47 56 63 64 59 57 55
69 67 65 63 63 62 61 60 60 62 60 56 52 45 46 49 57 64 60 54 53 53
69 66 64 63 62 63 62 62 64 62 60 55 53 45 46 48 61 59 60 53 50 48
67 64 64 62 62 63 62 62 61 60 59 58 53 50 46 47 56 56 59 59 56 56
MSLP
1010.20 1010.95 1011.69 1012.03 1012.73 1013.48 1014.40 1015.26 1015.33 1015.59 1015.77 1015.90 1016.04 1016.09 1016.28 1016.41 1016.58 1016.62 1016.88 1017.07 1016.97 1016.61
1010.31 1011.10 1012.02 1012.81 1013.29 1014.03 1014.75 1015.44 1015.58 1015.77 1016.03 1016.28 1016.28 1016.31 1016.69 1016.63 1016.61 1016.90 1017.14 1017.48 1017.32 1017.11
1010.76 1011.49 1012.57 1013.39 1014.11 1014.67 1014.99 1015.59 1015.72 1015.95 1016.17 1016.43 1016.60 1016.73 1016.72 1017.01 1017.08 1017.43 1017.47 1017.62 1017.45 1017.49
1011.24 1012.15 1013.21 1013.93 1014.52 1015.05 1015.39 1015.51 1015.72 1016.01 1016.37 1016.74 1016.99 1016.95 1017.09 1017.33 1017.34 1017.56 1017.72 1017.72 1017.63 1017.83
1011.63 1012.69 1013.36 1013.96 1014.49 1014.97 1015.39 1015.75 1015.84 1015.93 1016.41 1016.83 1017.15 1017.21 1017.37 1017.54 1017.73 1017.87 1018.07 1018.10 1018.02 1018.23
1012.23 1012.90 1013.40 1013.95 1014.40 1015.09 1015.67 1015.81 1016.03 1016.21 1016.57 1017.01 1017.31 1017.51 1017.67 1017.86 1017.98 1018.17 1018.49 1018.42 1018.32 1018.38
1012.27 1013.06 1013.45 1014.27 1014.83 1015.36 1015.87 1016.08 1016.35 1016.58 1016.95 1017.22 1017.59 1018.13 1018.11 1018.23 1018.34 1018.37 1018.45 1018.52 1018.61 1018.79
1012.55 1013.25 1013.97 1014.49 1015.12 1015.80 1016.07 1016.34 1016.69 1017.01 1017.47 1018.03 1018.76 1019.33 1019.29 1019.05 1018.76 1018.75 1018.75 1018.91 1019.12 1019.40
1012.75 1013.48 1014.21 1014.70 1015.60 1016.24 1016.32 1016.55 1016.85 1017.47 1018.05 1018.96 1019.61 1019.84 1019.86 1019.76 1019.35 1019.22 1019.21 1019.33 1019.56 1019.67
1013.06 1013.63 1014.22 1014.98 1015.88 1016.57 1016.62 1016.88 1017.37 1018.01 1018.72 1019.69 1020.17 1020.30 1020.29 1020.15 1019.79 1019.36 1019.45 1019.62 1020.04 1020.16
1013.01 1013.36 1014.47 1015.39 1016.14 1016.68 1017.33 1017.65 1018.12 1018.55 1019.21 1020.15 1020.67 1020.57 1020.59 1020.22 1019.93 1019.51 1019.41 1019.91 1020.41 1020.81
1012.71 1013.73 1014.96 1015.86 1016.30 1016.91 1017.67 1018.16 1018.60 1018.87 1019.43 1020.38 1020.87 1020.81 1020.57 1020.13 1019.88 1019.53 1019.90 1020.53 1021.05 1021.16
1012.97 1014.25 1015.44 1016.08 1016.48 1016.98 1017.62 1017.96 1018.44 1019.11 1019.76 1020.51 1021.03 1020.94 1020.79 1020.42 1020.21 1020.17 1020.27 1020.97 1021.13 1021.13
1013.75 1014.73 1015.69 1016.18 1016.81 1017.07 1017.42 1018.04 1018.70 1019.42 1020.00 1020.51 1021.09 1021.42 1021.47 1021.25 1021.21 1021.06 1020.47 1020.60 1021.07 1021.18
Wind_Speed
13 8 7 8 7 8 8 6 6 6 5 6 5 5 5 4 5 5 6 7 5 3
12 10 12 11 10 8 9 7 6 7 6 6 5 5 6 4 6 5 5 5 6 5
14 14 11 10 11 10 9 8 7 7 6 6 6 6 5 5 6 5 4 3 5 5
14 15 12 11 10 9 7 7 7 7 7 7 6 5 4 4 6 6 5 5 6 6
15 14 13 12 11 9 7 6 6 7 7 8 6 5 6 7 6 6 6 6 6 8
15 13 12 11 10 9 7 7 7 7 7 8 7 5 6 6 6 6 5 5 5 5
14 13 12 10 9 9 8 8 7 7 7 7 9 11 7 6 5 5 5 5 6 8
14 13 12 11 10 8 7 7 8 8 10 11 10 8 9 9 6 6 6 7 9 7
14 13 12 12 9 8 7 7 8 9 11 9 7 9 11 9 6 6 5 6 8 4
13 13 12 12 10 8 8 8 8 10 11 9 7 10 11 11 6 4 4 7 6 7
14 13 12 11 10 10 8 7 7 7 10 8 7 9 9 11 5 4 3 8 7 7
14 13 12 11 9 11 9 7 6 6 9 9 6 8 9 8 6 4 8 10 8 6
14 13 12 10 9 8 8 7 7 7 8 11 7 9 12 11 7 6 4 7 6 11
13 13 10 10 9 5 8 8 6 7 8 8 7 6 9 12 6 4 4 6 6 4
Wind_Direction
126 126 147 120 140 99 102 110 104 98 91 79 86 62 84 63 76 57 67 43 1 7
127 110 99 94 92 97 106 117 101 96 89 83 70 93 78 65 57 52 73 62 21 29
112 105 100 89 91 94 91 104 107 102 98 86 66 30 89 87 84 68 44 63 62 38
116 110 111 111 113 114 119 115 113 111 105 100 94 93 106 102 94 81 69 35 56 38
120 120 119 119 118 111 103 104 101 98 100 97 94 88 74 63 66 60 49 38 44 49
120 120 114 109 108 108 109 95 94 95 97 107 110 92 74 74 77 74 59 33 28 70
115 115 109 112 108 106 107 104 100 98 102 92 65 37 39 83 66 64 75 44 20 43
116 116 119 114 106 108 109 110 111 99 79 65 57 36 16 352 64 51 49 51 26 62
124 120 115 110 111 116 111 106 106 97 86 78 70 26 26 8 343 60 51 54 39 22
124 124 121 121 119 110 95 81 87 91 95 85 68 29 16 359 325 83 68 73 49 22
131 121 122 120 114 106 95 97 98 105 107 100 62 36 9 345 301 321 97 88 61 50
125 126 120 123 130 117 115 119 128 115 105 90 61 23 12 354 308 56 80 79 64 69
126 123 126 129 124 121 141 134 121 106 93 102 79 29 19 9 18 26 90 119 130 72
120 120 126 113 116 139 98 91 101 100 87 92 98 58 38 26 46 1 355 51 32 34